TimeEDT,TemperatureF,Dew PointF,Humidity,Sea Level PressureIn,VisibilityMPH,Wind Direction,Wind SpeedMPH,Gust SpeedMPH,PrecipitationIn,Events,Conditions,WindDirDegrees,DateUTC
12:56 AM,60.1,55.9,86,29.83,10.0,SW,5.8,-,N/A,,Clear,230,2013-09-04 04:56:00
1:56 AM,59.0,55.0,87,29.84,10.0,SW,3.5,-,N/A,,Clear,230,2013-09-04 05:56:00
2:56 AM,57.9,55.0,90,29.84,10.0,WSW,3.5,-,N/A,,Clear,250,2013-09-04 06:56:00
3:56 AM,57.0,55.0,93,29.85,10.0,WSW,4.6,-,N/A,,Clear,240,2013-09-04 07:56:00
4:56 AM,55.0,54.0,96,29.86,10.0,WSW,3.5,-,N/A,,Clear,240,2013-09-04 08:56:00
5:56 AM,55.0,54.0,96,29.88,10.0,Calm,Calm,-,N/A,,Clear,0,2013-09-04 09:56:00
6:56 AM,57.0,55.0,93,29.90,10.0,Calm,Calm,-,N/A,,Clear,0,2013-09-04 10:56:00
7:56 AM,63.0,59.0,87,29.91,10.0,West,4.6,-,N/A,,Clear,270,2013-09-04 11:56:00
8:56 AM,68.0,59.0,73,29.92,10.0,West,4.6,-,N/A,,Clear,270,2013-09-04 12:56:00
9:56 AM,71.1,57.9,63,29.92,10.0,West,8.1,-,N/A,,Clear,260,2013-09-04 13:56:00
10:56 AM,73.9,55.9,53,29.92,10.0,West,5.8,-,N/A,,Clear,270,2013-09-04 14:56:00
11:56 AM,75.9,53.1,45,29.91,10.0,West,13.8,18.4,N/A,,Clear,280,2013-09-04 15:56:00
12:56 PM,77.0,53.1,43,29.90,10.0,WNW,8.1,-,N/A,,Clear,290,2013-09-04 16:56:00
1:56 PM,79.0,54.0,42,29.89,10.0,West,12.7,17.3,N/A,,Partly Cloudy,260,2013-09-04 17:56:00
2:56 PM,79.0,55.9,45,29.89,10.0,West,6.9,-,N/A,,Partly Cloudy,260,2013-09-04 18:56:00
3:56 PM,79.0,55.9,45,29.89,10.0,WSW,9.2,-,N/A,,Clear,250,2013-09-04 19:56:00
4:56 PM,79.0,54.0,42,29.88,10.0,WSW,9.2,-,N/A,,Clear,250,2013-09-04 20:56:00
5:56 PM,77.0,53.1,43,29.89,10.0,West,4.6,-,N/A,,Clear,270,2013-09-04 21:56:00
6:56 PM,72.0,55.9,57,29.90,10.0,WSW,4.6,-,N/A,,Clear,240,2013-09-04 22:56:00
7:56 PM,68.0,55.9,65,29.92,10.0,West,3.5,-,N/A,,Clear,280,2013-09-04 23:56:00
8:56 PM,64.9,57.0,75,29.93,10.0,Calm,Calm,-,N/A,,Clear,0,2013-09-05 00:56:00
9:56 PM,60.1,55.0,83,29.94,10.0,WSW,4.6,-,N/A,,Clear,240,2013-09-05 01:56:00
10:56 PM,61.0,55.0,81,29.95,10.0,SW,4.6,-,N/A,,Clear,230,2013-09-05 02:56:00
11:56 PM,60.1,55.0,83,29.93,10.0,Calm,Calm,-,N/A,,Clear,0,2013-09-05 03:56:00